#timestamp,LO_Frequency,Hit,StdDev 
1648990815.1,286047002.3,N
1648990835.9,286046996.8,N
1648990855.7,286046991.7,N
1648990875.5,286046995.2,N
1648990895.4,286046997.9,N
1648990915.2,286046997.4,N
1648990935.1,286046992.3,N
1648990936.0,286046992.3,N
1648990955.8,286046991.9,N
1648990975.6,286046995.6,N
1648990995.5,286047001.0,N
1648991015.3,286046992.2,N
1648991035.1,286046990.5,N
1648991055.9,286046996.1,N
1648991075.7,286047000.5,N
1648991095.6,286047003.0,N
1648991115.4,286047005.1,N
1648991135.2,286047009.2,N
1648991155.1,286047008.0,N
1648991156.0,286047008.0,N
1648991175.8,286047004.6,N
1648991195.6,286047009.8,N
1648991215.5,286047016.9,N
1648991235.3,286047019.0,N
1648991255.2,286047023.4,N
1648991275.9,286047022.3,N
1648991295.7,286047029.2,N
1648991315.6,286047032.7,Y
1648991335.4,286047026.9,P
1648991355.2,286047028.6,N
1648991375.1,286047029.5,N
1648991376.0,286047029.5,N
1648991395.8,286047027.4,N
1648991415.7,286047028.9,Y
1648991435.5,286047008.8,P
1648991455.3,286047006.9,N
1648991475.2,286047003.9,N
1648991495.0,286047005.5,N
1648991495.9,286047005.5,N
1648991515.8,286047004.8,N
1648991535.6,286047003.7,N
1648991555.4,286047002.0,N
1648991575.3,286047002.3,N
1648991595.1,286047006.0,N
1648991615.8,286047001.7,N
1648991635.7,286047000.3,N
1648991655.5,286047002.6,N
1648991675.4,286046996.4,N
1648991695.2,286046992.4,N
1648991715.0,286046999.0,N
1648991715.9,286046999.0,N
1648991735.8,286046998.5,N
1648991755.6,286047000.9,N
1648991775.4,286046998.7,N
1648991795.3,286047001.1,N
1648991815.1,286047002.5,N
1648991835.9,286047001.3,N
1648991855.7,286047000.2,N
1648991875.5,286047001.4,N
1648991895.4,286047003.6,N
1648991915.2,286047003.6,N
1648991935.0,286047005.5,N
1648991935.9,286047005.5,N
1648991955.8,286047005.7,N
1648991975.6,286047004.8,N
1648991995.5,286047005.9,N
1648992015.3,286047005.7,N
1648992035.1,286047008.6,N
1648992055.9,286047004.6,N
1648992075.7,286047004.9,N
1648992095.5,286047007.4,N
1648992115.4,286047006.4,N
1648992135.2,286047002.0,N
1648992155.1,286047000.9,N
1648992156.0,286047000.9,N
1648992175.8,286047000.3,N
1648992195.6,286047003.1,N
1648992215.5,286047002.9,N
1648992235.3,286047005.3,N
1648992255.1,286047005.8,N
1648992275.9,286047002.8,N
1648992295.7,286047001.7,N
1648992315.6,286047003.6,N
1648992335.4,286047001.9,N
1648992355.2,286047002.8,N
1648992375.1,286047003.3,N
1648992376.0,286047003.3,N
1648992395.8,286047003.1,N
1648992415.7,286047003.8,N
1648992435.5,286047002.3,N
1648992455.3,286047002.0,N
1648992475.2,286046998.9,N
1648992495.0,286047003.0,N
1648992495.9,286047003.0,N
1648992515.7,286047002.5,N
1648992535.6,286047001.3,N
1648992555.4,286047004.5,N
1648992575.3,286047003.0,N
1648992595.1,286047003.7,N
1648992596.0,286047003.7,N
1648992615.8,286047003.7,N
1648992635.7,286047002.5,N
1648992655.5,286047000.1,N
1648992675.3,286046998.2,N
1648992695.2,286047000.2,N
1648992715.0,286046998.3,N
1648992715.9,286046998.3,N
1648992735.8,286047000.0,N
1648992755.6,286046995.1,N
1648992775.4,286046989.2,Y
1648992795.3,286046992.8,P
1648992815.1,286046992.9,N
1648992835.8,286046994.2,N
1648992855.7,286046992.2,N
1648992875.5,286046996.6,N
1648992895.4,286046997.3,N
1648992915.2,286046999.9,N
1648992935.0,286046998.6,N
1648992935.9,286046998.6,N
1648992955.8,286047002.8,N
1648992975.6,286047003.5,N
1648992995.5,286047003.3,N
1648993015.3,286047004.3,N
1648993035.1,286047004.4,N
1648993055.9,286047000.4,N
1648993075.7,286046999.8,N
1648993095.5,286046997.6,N
1648993115.4,286046996.2,N
1648993135.2,286047000.0,N
1648993155.1,286046998.2,N
1648993156.0,286046998.2,N
1648993175.8,286046999.0,N
1648993195.6,286046993.7,N
1648993215.5,286046995.5,N
1648993235.3,286046999.9,N
1648993255.1,286047001.7,N
1648993275.9,286047002.5,N
1648993295.7,286047001.0,N
1648993315.6,286047003.5,N
1648993335.4,286047002.9,N
1648993355.2,286047008.2,N
1648993375.1,286047006.9,N
1648993376.0,286047006.9,N
1648993395.8,286047006.2,N
1648993415.6,286047006.7,N
1648993435.5,286047006.0,N
1648993455.3,286047006.0,N
1648993475.2,286047000.8,N
1648993495.9,286047002.1,N
1648993515.7,286046998.6,N
1648993535.6,286047000.9,N
1648993555.4,286046996.0,N
1648993575.2,286046997.7,N
1648993595.1,286047000.9,N
1648993596.0,286047000.9,N
1648993615.8,286046998.7,N
1648993635.7,286047003.2,N
1648993655.5,286047003.4,N
1648993675.3,286047001.8,N
1648993695.2,286047002.6,N
1648993715.0,286047001.4,N
1648993715.9,286047001.4,N
1648993735.7,286047002.0,N
1648993755.6,286047003.5,N
1648993775.4,286047003.7,N
1648993795.3,286046996.9,N
1648993815.1,286047000.7,N
1648993816.0,286047000.7,N
1648993835.8,286047001.6,N
1648993855.7,286047002.6,N
1648993875.5,286046999.7,N
1648993895.3,286047001.8,N
1648993915.2,286047003.6,N
1648993935.0,286047001.8,N
1648993935.9,286047001.8,N
1648993955.8,286047004.5,N
1648993975.6,286047005.3,N
1648993995.4,286047007.6,Y
1648994015.3,286047001.4,P
1648994035.1,286047005.9,P
1648994055.9,286047004.4,N
1648994075.7,286047005.9,N
1648994095.5,286047007.4,Y
1648994115.4,286046999.8,P
1648994135.2,286046999.8,N
1648994155.0,286046999.7,N
1648994156.0,286046999.7,N
1648994175.8,286047004.4,N
1648994195.6,286047000.9,N
1648994215.5,286046999.4,N
1648994235.3,286047000.2,N
1648994255.1,286047004.0,N
1648994275.9,286047011.9,Y
1648994295.7,286047000.2,P
1648994315.6,286046996.9,P
1648994335.4,286046995.9,N
1648994355.2,286046994.1,N
1648994375.1,286046995.1,N
1648994376.0,286046995.1,N
1648994395.8,286046993.2,N
